CW9206 Weather Reports


time (UTC)temp
C
wind
direction
speed
KPH
gust
KPH
rain 1hr
cm
rain 24hr
cm
rain mn
cm
humidity
%
barometer
mb
20260906104631 13 290 0.0 0.0 0.00 0.00 0.00 84 1012.6
20260906103131 13 290 0.0 0.0 0.00 0.00 0.00 84 1012.6
20260906102631 13 290 0.0 0.0 0.00 0.00 0.00 84 1012.6
20260906102131 13 290 0.0 0.0 0.00 0.00 0.00 84 1012.6
20260906101631 13 290 0.0 0.0 0.00 0.00 0.00 84 1012.5
20260906101131 13 290 0.0 0.0 0.00 0.00 0.00 84 1012.5
20260906100631 13 290 0.0 0.0 0.00 0.00 0.00 84 1012.5
20260906095631 12 290 0.0 0.0 0.00 0.00 0.00 85 1012.7
20260906095131 12 290 0.0 0.0 0.00 0.00 0.00 85 1012.6
20260906094631 12 290 0.0 0.0 0.00 0.00 0.00 85 1012.6
20260906094130 12 290 0.0 0.0 0.00 0.00 0.00 85 1012.6
20260906093130 12 286 0.0 0.0 0.00 0.00 0.00 86 1012.7
20260906092631 12 286 0.0 0.0 0.00 0.00 0.00 85 1012.9
20260906092130 12 286 0.0 0.0 0.00 0.00 0.00 86 1012.7
20260906091630 12 286 0.0 0.0 0.00 0.00 0.00 86 1012.9
20260906090631 12 286 0.0 0.0 0.00 0.00 0.00 83 1012.9
20260906090131 12 286 0.0 0.0 0.00 0.00 0.00 83 1013.0
20260906085630 12 286 0.0 0.0 0.00 0.00 0.00 83 1013.0
20260906085130 12 286 0.0 0.0 0.00 0.00 0.00 83 1013.0
20260906084631 12 286 0.0 0.0 0.00 0.00 0.00 85 1013.1
20260906084130 12 286 0.0 0.0 0.00 0.00 0.00 85 1013.2
20260906083630 12 286 0.0 0.0 0.00 0.00 0.00 84 1013.2
20260906083130 13 286 0.0 0.0 0.00 0.00 0.00 85 1013.2
20260906082130 13 286 0.0 0.0 0.00 0.00 0.00 84 1013.3
20260906081630 13 286 0.0 0.0 0.00 0.00 0.00 84 1013.3
20260906081130 13 286 0.0 0.0 0.00 0.00 0.00 84 1013.3
20260906080630 13 286 0.0 0.0 0.00 0.00 0.00 84 1013.3
20260906080130 13 286 0.0 0.0 0.00 0.00 0.00 83 1013.3
20260906075630 13 255 0.0 0.0 0.00 0.00 0.00 83 1013.2
20260906075130 13 250 0.0 0.0 0.00 0.00 0.00 83 1013.2
20260906074630 13 250 0.0 0.0 0.00 0.00 0.00 82 1013.3
20260906074129 13 250 0.0 0.0 0.00 0.00 0.00 83 1013.3
20260906073130 14 248 0.0 0.0 0.00 0.00 0.00 83 1013.3
20260906072630 14 248 0.0 0.0 0.00 0.00 0.00 82 1013.2
20260906071630 15 248 0.0 0.0 0.00 0.00 0.00 83 1013.2
20260906071130 15 248 0.0 0.0 0.00 0.00 0.00 83 1013.2
20260906070630 15 228 0.0 0.0 0.00 0.00 0.00 83 1013.2
20260906070130 15 228 0.0 0.0 0.00 0.00 0.00 84 1013.2
20260906065629 15 227 0.0 0.0 0.00 0.00 0.00 85 1013.2
20260906065130 15 227 0.0 0.0 0.00 0.00 0.00 85 1013.2
20260906064630 15 227 0.0 0.0 0.00 0.00 0.00 84 1013.1
20260906064130 15 227 0.0 0.0 0.00 0.00 0.00 84 1013.1
20260906063630 15 227 0.0 0.0 0.00 0.00 0.00 84 1013.2
20260906063129 15 227 0.0 0.0 0.00 0.00 0.00 84 1013.1
20260906062630 16 227 0.0 0.0 0.00 0.00 0.00 83 1013.2
20260906062129 16 227 0.0 0.0 0.00 0.00 0.00 83 1013.2
20260906061629 16 227 0.0 3.2 0.00 0.00 0.00 83 1013.2
20260906060629 16 226 0.0 3.2 0.00 0.00 0.00 83 1013.2
20260906060129 16 227 0.0 3.2 0.00 0.00 0.00 83 1013.2
20260906055129 16 274 0.0 0.0 0.00 0.00 0.00 83 1013.2
20260906054629 16 297 0.0 3.2 0.00 0.00 0.00 82 1013.2
20260906054129 16 297 0.0 3.2 0.00 0.00 0.00 82 1013.2
20260906053629 16 5 0.0 3.2 0.00 0.00 0.00 82 1013.2
20260906053129 16 294 1.6 4.8 0.00 0.00 0.00 82 1013.2
20260906052628 16 341 1.6 4.8 0.00 0.00 0.00 81 1013.2
20260906052128 17 285 0.0 3.2 0.00 0.00 0.00 81 1013.3
20260906051628 17 345 0.0 3.2 0.00 0.00 0.00 80 1013.3
20260906051128 17 309 0.0 4.8 0.00 0.00 0.00 80 1013.4
20260906050628 17 322 0.0 4.8 0.00 0.00 0.00 80 1013.4
20260906050128 17 317 1.6 3.2 0.00 0.00 0.00 79 1013.4
20260906045628 17 344 3.2 3.2 0.00 0.00 0.00 78 1013.3
20260906045128 17 209 0.0 0.0 0.00 0.00 0.00 77 1013.2
20260906044628 17 209 0.0 3.2 0.00 0.00 0.00 77 1013.1
20260906044128 17 209 0.0 3.2 0.00 0.00 0.00 77 1013.0
20260906043628 17 159 0.0 3.2 0.00 0.00 0.00 76 1012.9
20260906043128 17 159 0.0 3.2 0.00 0.00 0.00 75 1013.0
20260906042628 18 223 0.0 3.2 0.00 0.00 0.00 74 1013.0
20260906042128 18 252 0.0 3.2 0.00 0.00 0.00 74 1012.9
20260906041628 18 321 0.0 1.6 0.00 0.00 0.00 73 1012.9
20260906041128 18 326 0.0 3.2 0.00 0.00 0.00 73 1012.9
20260906040628 18 322 0.0 3.2 0.00 0.00 0.00 72 1012.9
20260906035628 18 30 0.0 3.2 0.00 0.00 0.00 72 1012.6
20260906035128 18 79 0.0 3.2 0.00 0.00 0.00 71 1012.5
20260906034628 18 339 0.0 3.2 0.00 0.00 0.00 71 1012.6
20260906034127 19 321 0.0 3.2 0.00 0.00 0.00 70 1012.5
20260906033627 19 298 0.0 3.2 0.00 0.00 0.00 69 1012.4
20260906033128 19 269 0.0 3.2 0.00 0.00 0.00 69 1012.3
20260906032627 19 262 0.0 0.0 0.00 0.00 0.00 68 1012.2
20260906032128 20 262 0.0 3.2 0.00 0.00 0.00 68 1012.2
20260906031627 20 292 0.0 4.8 0.00 0.00 0.00 67 1012.2
20260906031128 20 323 1.6 4.8 0.00 0.00 0.00 67 1012.1
20260906030627 20 233 0.0 3.2 0.00 0.00 0.00 66 1012.0
20260906030128 20 261 0.0 3.2 0.00 0.00 0.00 65 1012.0
20260906025628 20 288 1.6 4.8 0.00 0.00 0.00 64 1011.8
20260906025127 21 248 1.6 4.8 0.00 0.00 0.00 63 1011.9
20260906024628 21 250 0.0 4.8 0.00 0.00 0.00 63 1011.8
20260906024127 21 224 0.0 4.8 0.00 0.00 0.00 62 1011.8
20260906023627 21 21 0.0 4.8 0.00 0.00 0.00 61 1011.8
20260906023128 22 177 0.0 4.8 0.00 0.00 0.00 59 1011.8
20260906022627 22 102 3.2 4.8 0.00 0.00 0.00 58 1011.7
20260906021627 23 284 0.0 6.4 0.00 0.00 0.00 56 1011.7
20260906021127 23 92 3.2 8.0 0.00 0.00 0.00 55 1011.5
20260906020627 23 205 0.0 9.7 0.00 0.00 0.00 53 1011.5
20260906020127 24 265 1.6 9.7 0.00 0.00 0.00 53 1011.4
20260906015127 25 343 1.6 8.0 0.00 0.00 0.00 50 1011.5
20260906014626 25 15 0.0 8.0 0.00 0.00 0.00 49 1011.4
20260906014127 25 161 0.0 6.4 0.00 0.00 0.00 48 1011.4
20260906013627 26 273 0.0 6.4 0.00 0.00 0.00 47 1011.5
20260906012627 26 248 0.0 3.2 0.00 0.00 0.00 45 1011.5
20260906012156 27 246 0.0 4.8 0.00 0.00 0.00 44 1011.6
20260906011626 27 343 1.6 4.8 0.00 0.00 0.00 43 1011.5
20260906011126 27 329 1.6 6.4 0.00 0.00 0.00 42 1011.6
20260906010126 28 267 1.6 4.8 0.00 0.00 0.00 41 1011.6
20260906005626 28 226 3.2 8.0 0.00 0.00 0.00 40 1011.6
20260906005126 29 48 1.6 8.0 0.00 0.00 0.00 39 1011.6
20260906004626 29 172 0.0 8.0 0.00 0.00 0.00 40 1011.6
20260906004126 29 257 0.0 8.0 0.00 0.00 0.00 38 1011.5
20260906003627 29 309 3.2 9.7 0.00 0.00 0.00 38 1011.5
20260906002626 30 195 0.0 4.8 0.00 0.00 0.00 36 1011.5
20260906002125 30 211 0.0 9.7 0.00 0.00 0.00 36 1011.4
20260906001626 30 350 0.0 9.7 0.00 0.00 0.00 35 1011.4
20260906001125 30 14 0.0 6.4 0.00 0.00 0.00 35 1011.4
20260906000125 30 309 0.0 9.7 0.00 0.00 0.00 35 1011.4
20260905235656 30 165 1.6 9.7 0.00 0.00 0.00 35 1011.3
20260905235125 30 341 4.8 9.7 0.00 0.00 0.00 35 1011.4
20260905234626 30 302 1.6 14.5 0.00 0.00 0.00 34 1011.4
20260905234155 31 277 0.0 14.5 0.00 0.00 0.00 34 1011.4
20260905233625 31 345 1.6 4.8 0.00 0.00 0.00 33 1011.3
20260905232626 31 171 3.2 6.4 0.00 0.00 0.00 32 1011.4
20260905232126 31 323 0.0 6.4 0.00 0.00 0.00 33 1011.4
20260905231625 31 259 1.6 9.7 0.00 0.00 0.00 32 1011.4
20260905231125 31 260 1.6 9.7 0.00 0.00 0.00 33 1011.4
20260905230126 31 209 6.4 8.0 0.00 0.00 0.00 32 1011.5
20260905225626 31 256 1.6 8.0 0.00 0.00 0.00 31 1011.5
20260905225125 31 169 3.2 8.0 0.00 0.00 0.00 32 1011.6
20260905224655 31 190 1.6 8.0 0.00 0.00 0.00 33 1011.7
20260905224125 32 230 6.4 6.4 0.00 0.00 0.00 32 1011.7
20260905223625 32 226 1.6 8.0 0.00 0.00 0.00 32 1011.8
20260905223125 32 273 3.2 8.0 0.00 0.00 0.00 31 1011.7
20260905222625 32 167 1.6 4.8 0.00 0.00 0.00 31 1011.7
20260905222126 32 180 1.6 4.8 0.00 0.00 0.00 31 1011.6
20260905221625 32 246 0.0 4.8 0.00 0.00 0.00 31 1011.5
20260905220656 32 158 0.0 6.4 0.00 0.00 0.00 31 1011.4
20260905215626 32 207 1.6 4.8 0.00 0.00 0.00 30 1011.6
20260905215126 31 211 1.6 9.7 0.00 0.00 0.00 31 1011.7
20260905214626 31 217 1.6 11.3 0.00 0.00 0.00 30 1011.7
20260905214125 31 191 3.2 14.5 0.00 0.00 0.00 31 1011.7
20260905213625 31 192 1.6 14.5 0.00 0.00 0.00 29 1011.8
20260905213125 32 149 8.0 14.5 0.00 0.00 0.00 28 1011.8
20260905212625 32 225 1.6 9.7 0.00 0.00 0.00 29 1011.8
20260905212126 31 163 1.6 9.7 0.00 0.00 0.00 29 1011.9
20260905211625 31 284 0.0 9.7 0.00 0.00 0.00 30 1011.9
20260905211125 31 286 3.2 8.0 0.00 0.00 0.00 29 1011.9
20260905210625 32 147 1.6 9.7 0.00 0.00 0.00 31 1012.0
20260905210155 31 147 3.2 9.7 0.00 0.00 0.00 30 1011.9
20260905205625 31 327 0.0 11.3 0.00 0.00 0.00 29 1012.1
20260905205125 31 233 3.2 11.3 0.00 0.00 0.00 30 1012.1
20260905204626 31 170 4.8 9.7 0.00 0.00 0.00 30 1012.1
20260905204126 31 207 1.6 6.4 0.00 0.00 0.00 30 1012.1
20260905203625 31 209 3.2 6.4 0.00 0.00 0.00 30 1012.2
20260905202625 31 240 1.6 6.4 0.00 0.00 0.00 31 1012.4
20260905201125 30 171 1.6 9.7 0.00 0.10 0.00 31 1012.4
20260905200626 30 263 1.6 9.7 0.00 0.10 0.00 32 1012.5
20260905200125 30 141 8.0 11.3 0.00 0.10 0.00 33 1012.5
20260905195655 30 189 3.2 11.3 0.00 0.10 0.00 34 1012.6
20260905195125 30 211 3.2 9.7 0.00 0.10 0.00 34 1012.6
20260905194125 29 255 1.6 8.0 0.00 0.10 0.00 35 1012.7
20260905193625 29 250 1.6 8.0 0.00 0.10 0.00 36 1012.8
20260905193125 29 277 1.6 9.7 0.00 0.10 0.00 35 1012.8
20260905192625 29 17 3.2 9.7 0.00 0.10 0.00 36 1012.9
20260905192125 28 237 3.2 11.3 0.00 0.10 0.00 37 1013.0
20260905191625 28 143 4.8 14.5 0.00 0.10 0.00 37 1013.1
20260905191125 28 254 0.0 14.5 0.00 0.10 0.00 40 1013.0
20260905190625 28 142 6.4 12.9 0.00 0.10 0.00 41 1013.1
20260905190125 28 142 3.2 9.7 0.00 0.10 0.00 41 1013.1
20260905185655 28 130 1.6 9.7 0.00 0.10 0.00 42 1013.1
20260905184625 28 335 0.0 11.3 0.00 0.10 0.00 42 1013.1
20260905184125 28 133 4.8 9.7 0.00 0.10 0.00 43 1013.2
20260905183626 28 218 0.0 8.0 0.00 0.10 0.00 44 1013.3
20260905182625 27 258 1.6 11.3 0.00 0.10 0.00 46 1013.3
20260905182155 27 115 3.2 11.3 0.00 0.10 0.00 47 1013.3
20260905181625 27 128 1.6 4.8 0.00 0.10 0.00 49 1013.3
20260905180625 27 360 1.6 3.2 0.00 0.10 0.00 49 1013.3
20260905180125 26 285 3.2 3.2 0.00 0.10 0.00 51 1013.3
20260905175625 26 185 0.0 3.2 0.00 0.10 0.00 53 1013.3
20260905175125 25 284 0.0 3.2 0.00 0.10 0.00 54 1013.3
20260905174125 25 134 0.0 4.8 0.00 0.10 0.00 56 1013.4
20260905173625 24 234 1.6 4.8 0.00 0.10 0.00 58 1013.3
20260905173125 23 254 0.0 3.2 0.00 0.10 0.00 59 1013.3
20260905172625 23 118 1.6 4.8 0.00 0.10 0.00 59 1013.3
20260905172124 22 186 0.0 4.8 0.00 0.10 0.00 61 1013.3
20260905171654 22 65 0.0 3.2 0.00 0.10 0.00 61 1013.2
20260905171125 22 114 1.6 3.2 0.00 0.10 0.00 62 1013.2
20260905170625 21 146 1.6 3.2 0.00 0.10 0.00 62 1013.2
20260905170125 21 230 0.0 1.6 0.00 0.10 0.00 64 1013.4
20260905165624 20 186 1.6 3.2 0.00 0.10 0.00 65 1013.4
20260905165124 20 300 0.0 3.2 0.00 0.10 0.00 67 1013.5
20260905164154 19 236 1.6 3.2 0.00 0.10 0.00 70 1013.4
20260905163625 18 94 0.0 3.2 0.00 0.10 0.00 72 1013.5
20260905163124 18 10 0.0 3.2 0.00 0.10 0.00 74 1013.5
20260905162624 17 188 0.0 3.2 0.00 0.10 0.00 75 1013.3
20260905162124 17 162 0.0 3.2 0.00 0.10 0.00 77 1013.3
20260905161624 17 304 1.6 3.2 0.00 0.10 0.00 77 1013.3
20260905161125 16 113 0.0 3.2 0.00 0.10 0.00 79 1013.3
20260905160625 16 142 0.0 3.2 0.00 0.10 0.00 80 1013.3
20260905160124 16 137 0.0 3.2 0.00 0.10 0.00 82 1013.3
20260905155625 16 121 1.6 3.2 0.00 0.10 0.00 82 1013.3
20260905155125 15 127 0.0 4.8 0.00 0.10 0.00 83 1013.3
20260905154624 15 103 0.0 4.8 0.00 0.10 0.00 84 1013.4
20260905154125 15 121 1.6 3.2 0.00 0.10 0.00 85 1013.3
20260905153624 15 101 1.6 4.8 0.00 0.10 0.00 86 1013.4
20260905153125 14 111 1.6 4.8 0.00 0.10 0.00 88 1013.3
20260905152625 13 360 0.0 3.2 0.00 0.10 0.00 89 1013.3
20260905151624 13 114 0.0 3.2 0.00 0.10 0.00 89 1013.3
20260905151124 13 107 1.6 3.2 0.00 0.10 0.00 90 1013.2
20260905150125 13 72 0.0 0.0 0.00 0.10 0.00 91 1013.2
20260905145125 13 75 0.0 3.2 0.00 0.10 0.00 91 1013.3
20260905144624 13 43 0.0 0.0 0.00 0.10 0.00 91 1013.3
20260905144124 13 28 0.0 0.0 0.00 0.10 0.00 91 1013.2
20260905143625 13 9 0.0 0.0 0.00 0.10 0.00 91 1013.1
20260905143125 12 9 0.0 0.0 0.00 0.10 0.00 91 1013.0
20260905142124 12 11 0.0 0.0 0.00 0.10 0.00 92 1013.0
20260905141624 12 11 0.0 3.2 0.00 0.10 0.00 92 1012.9
20260905140624 12 360 0.0 1.6 0.00 0.10 0.00 92 1012.7
20260905140124 12 360 0.0 3.2 0.00 0.10 0.00 91 1012.6
20260905134624 12 9 0.0 1.6 0.00 0.10 0.00 92 1012.6
20260905134124 12 355 0.0 3.2 0.00 0.10 0.00 92 1012.6
20260905133624 12 9 0.0 3.2 0.00 0.10 0.00 92 1012.5
20260905133124 12 339 0.0 0.0 0.00 0.10 0.00 92 1012.5
20260905132624 12 338 0.0 3.2 0.00 0.10 0.00 92 1012.5
20260905132125 12 338 0.0 3.2 0.00 0.10 0.00 92 1012.4
20260905131624 12 340 0.0 3.2 0.00 0.10 0.00 92 1012.3
20260905130624 12 344 0.0 3.2 0.00 0.10 0.00 92 1012.3
20260905130154 12 344 0.0 3.2 0.00 0.10 0.00 92 1012.3
20260905125624 12 345 0.0 3.2 0.00 0.10 0.00 92 1012.3
20260905125124 12 345 0.0 3.2 0.00 0.10 0.00 92 1012.3
20260905124624 12 331 0.0 3.2 0.00 0.10 0.00 91 1012.1
20260905124124 12 339 0.0 1.6 0.00 0.10 0.00 91 1012.1
20260905123624 12 328 0.0 3.2 0.00 0.10 0.00 91 1012.1
20260905123124 12 327 0.0 3.2 0.00 0.10 0.00 91 1012.2
20260905122624 12 330 1.6 1.6 0.00 0.10 0.00 92 1012.2
20260905122124 12 330 0.0 0.0 0.00 0.10 0.00 92 1012.1
20260905121624 12 330 0.0 0.0 0.00 0.10 0.00 92 1012.1
20260905121124 12 330 0.0 1.6 0.00 0.10 0.00 92 1012.1
20260905120624 12 332 0.0 3.2 0.00 0.10 0.00 91 1012.2
20260905120124 12 331 1.6 3.2 0.00 0.10 0.00 91 1012.1
20260905115124 12 326 3.2 3.2 0.00 0.10 0.00 92 1012.2
20260905114624 12 350 0.0 0.0 0.00 0.10 0.00 92 1012.2
20260905114124 12 350 0.0 0.0 0.00 0.10 0.00 91 1012.2
20260905113624 12 355 0.0 0.0 0.00 0.10 0.00 91 1012.3
20260905113124 12 355 0.0 0.0 0.00 0.10 0.00 92 1012.3
20260905112624 12 355 0.0 0.0 0.00 0.10 0.00 92 1012.3
20260905112124 12 355 0.0 0.0 0.00 0.10 0.00 92 1012.2
20260905111624 12 355 0.0 0.0 0.00 0.10 0.00 92 1012.4
20260905111124 12 355 0.0 0.0 0.00 0.10 0.00 92 1012.4
20260905110654 13 345 0.0 0.0 0.00 0.10 0.00 92 1012.4
20260905110154 13 338 0.0 0.0 0.00 0.10 0.00 92 1012.3
20260905105624 13 331 0.0 0.0 0.00 0.10 0.00 92 1012.5